Regional Weather Roundup
Issued by NWS Kansas City/Pleasant Hill, MO

Home | Current Version | Previous Version | Graphics & Text | Print | Product List | Glossary Off
Versions: 1 2 3 4 5 6 7 8 9 10 11 12 13 14 15 16 17 18 19 20 21 22 23 24 25 26 27 28 29 30 31 32 33 34 35 36 37 38 39 40 41 42 43 44 45 46 47 48 49 50

000
ASUS43 KEAX 300910
RWREAX

WEATHER ROUNDUP FOR EASTERN KANSAS AND NORTHWEST MISSOURI
NATIONAL WEATHER SERVICE KANSAS CITY/PLEASANT HILL MO
400 AM CDT TUE SEP 30 2014

KSZ040-057-103>105-MOZ028-029-037-043-301000-
...KANSAS CITY METROPOLITAN AREA...

CITY           SKY/WX    TMP DP  RH WIND       PRES   REMARKS
K.C. INTL      PTCLDY    63  58  83 SE8       29.94F
K.C. DOWNTOWN  MOCLDY    65  60  84 E3        29.94F
LEES SUMMIT    MOCLDY    66  58  75 S3        29.96F
OLATHE - IXD   PTCLDY    64  59  83 SE7       29.94F
OLATHE - OJC   PTCLDY    63  58  83 SE5       29.94F
LAWRENCE       PTCLDY    58  56  93 E3        29.93F FOG

$$

MOZ001>008-011>017-020>025-030>033-038>040-044>046-053-054-301000-
...NORTHERN AND CENTRAL MISSOURI...

CITY           SKY/WX    TMP DP  RH WIND       PRES   REMARKS
ST. JOSEPH     PTCLDY    56  55  97 CALM      29.93F
MOSBY          MOSUNNY   55  55 100 CALM      29.95F FOG
WHITEMAN AFB   PTCLDY    60  57  91 SE5       29.95F
CLINTON        PTCLDY    57  57 100 CALM      29.96F FOG
SEDALIA        CLEAR     63  57  81 S5        29.97F
WARSAW         NOT AVBL
MARSHALL       CLEAR     63  61  94 CALM      29.96F
CHILLICOTHE      N/A     58  56  93 CALM      29.97F
MOBERLY        CLEAR     61  55  82 CALM      29.97F
KIRKSVILLE     CLEAR     57  54  89 CALM      29.98S

$$

MOZ041-047>049-056>058-063>065-088>090-097-301000-
...EASTERN AND SOUTHERN MISSOURI...

CITY           SKY/WX    TMP DP  RH WIND       PRES   REMARKS
ST. LOUIS INTL CLEAR     65  59  81 CALM      29.96S
SPIRIT OF STL  FOG       55  54  94 CALM      29.95S VSB 3/4
COLUMBIA       CLEAR     63  56  78 CALM      29.97F
JEFFERSON CITY CLEAR     58  55  90 CALM      29.96F
MEXICO         CLEAR    N/A N/A N/A SW5       29.97F
HANNIBAL       CLEAR     64  57  77 W3        29.97R
ROLLA          CLEAR     59  52  77 S3        29.97S
LEBANON        CLEAR     61  57  88 CALM      29.98F
OSAGE BEACH    CLEAR     57  54  88 CALM      29.97S
SPRINGFIELD    CLEAR     61  56  83 SE7       29.97F
BRANSON        CLOUDY    59  57  94 CALM      29.99S
NEVADA         CLOUDY    61  59  94 CALM      29.96F
JOPLIN         CLEAR     60  58  92 CALM      29.96F
WEST PLAINS    CLEAR     58  55  90 CALM      29.99F

$$

IAZ060-094-KSZ022-034>040-054-083-096-NEZ052-066-093-301000-
...KANSAS...SOUTHEAST NEBRASKA AND IOWA...

CITY           SKY/WX    TMP DP  RH WIND       PRES   REMARKS
TOPEKA         CLEAR     63  60  90 NE5       29.92F
MANHATTAN      PTCLDY    67  59  75 W5        29.89F
EMPORIA        CLEAR     62  59  90 SE7       29.92F
CHANUTE        CLEAR     62  59  90 E7        29.94F
WICHITA        MOCLDY    65  57  75 S9        29.90F
OMAHA          PTCLDY    64  59  83 SE7       29.91F
LINCOLN        PTCLDY    67  58  72 SE8       29.87F
FALLS CITY     PTCLDY    61  58  90 SE6       29.90F
LAMONI         CLEAR     60  58  92 NE5       29.97F FOG
DES MOINES     PTCLDY    59  55  87 E7        29.98F

$$




USA.gov is the U.S. government's official web portal to all federal, state and local government web resources and services.